Regional Weather Roundup
Issued by NWS

Home | Current Version | Previous Version | Text Only | Print | Product List | Glossary Off
Versions: 1 2 3 4 5 6 7 8 9 10 11 12 13 14 15 16 17 18 19 20 21 22 23 24 25 26 27 28 29 30 31 32 33 34 35 36 37 38 39 40 41 42 43 44 45 46 47 48 49 50

000
ASUS43 KDTX 221001
RWRMI
MICHIGAN HOURLY REGIONAL WEATHER ROUNDUP
NATIONAL WEATHER SERVICE DETROIT/PONTIAC MI
600 AM EDT FRI SEP 22 2017

NOTE: "FAIR" INDICATES FEW OR NO CLOUDS BELOW 12,000 FEET WITH NO
SIGNIFICANT WEATHER AND/OR OBSTRUCTION TO VISIBILITY.

MIZ047>049-052>055-059>063-066>070-074>076-081>083-221100-
SOUTHEAST LOWER MICHIGAN

CITY           SKY/WX    TMP DP  RH WIND       PRES   REMARKS
ADRIAN         CLEAR     66  65  96 NE3       30.12R FOG
ALMA           CLEAR     61  59  94 CALM      30.11R
ANN ARBOR      CLOUDY    67  66  97 N3        30.11S
BAD AXE        PTCLDY    66  62  86 S5        30.12S
CARO           CLEAR     63  61  94 CALM      30.11S
DETROIT CITY   CLEAR     68  66  93 CALM      30.12R
DETROIT        MOCLDY    69  65  86 NE3       30.12R
FLINT          PTCLDY    64  62  93 CALM      30.11S
GROSSE ILE     PTCLDY    67  64  93 CALM      30.10S
HILLSDALE      PTCLDY    68  64  88 CALM      30.12S FOG
HOWELL         PTCLDY    67  65  92 CALM      30.11S

CITY           SKY/WX    TMP DP  RH WIND       PRES   REMARKS
JACKSON        CLOUDY    70  66  87 CALM      30.11S FOG
LAMBERTVILLE   PTCLDY    68  66  92 CALM      30.10S FOG
LANSING        PTCLDY    68  65  90 SE5       30.11S
LAPEER         FAIR      62  60  96 CALM      30.12F FOG
MASON          PTCLDY    70  67  90 SE7       30.11S
MONROE         CLEAR     67  65  92 CALM      30.09F FOG
MT. CLEMENS    CLOUDY    66  66 100 CALM      30.11R
PONTIAC        MOCLDY    66  65  96 CALM      30.12R
PORT HOPE        N/A     69  61  75 VRB3      30.10R
PORT HURON     CLOUDY    63  61  94 CALM      30.13S FOG
TRI CITIES     CLEAR     66  64  93 S3        30.11S
MIDLAND        FAIR      62  62  99 CALM      30.09S
TROY           CLOUDY    68  65  89 NE3       30.14R
SAGINAW HB     CLEAR     61  59  94 CALM      30.10S
$$
MIZ043>046-050>051-056>058-064>065-071>073-077>080-221100-
SOUTHWEST LOWER MICHIGAN

CITY           SKY/WX    TMP DP  RH WIND       PRES   REMARKS
BATTLE CREEK   CLEAR     67  65  93 CALM      30.11S
BENTON HARBOR  CLEAR     70  66  87 SE3       30.06S
BIG RAPIDS     CLEAR     63  60  91 CALM      30.09S
COLDWATER      CLEAR     68  68 100 CALM      30.11R FOG
FREMONT        FAIR      68  66  92 CALM      30.07R
HOLLAND        CLEAR     69  64  84 S5        30.07S
GRAND RAPIDS   CLEAR     67  64  90 SE5       30.09R
IONIA          FAIR      64  63  98 SE3       30.09S
KALAMAZOO      CLEAR     67  63  87 CALM      30.10R FOG
LUDINGTON      CLEAR     65  64  94 CALM      30.05R
MARSHALL       CLEAR     65  64  98 CALM      30.11R
MOUNT PLEASANT CLEAR     64  62  95 CALM      30.10R FOG
MUSKEGON       PTCLDY    70  65  84 CALM      30.07R
SOUTH HAVEN    CLEAR     72  68  88 CALM      30.07R
$$
MIZ016>042-221100-
NORTHERN LOWER MICHIGAN

CITY           SKY/WX    TMP DP  RH WIND       PRES   REMARKS
ALPENA         PTCLDY    61  61 100 CALM      30.08S FOG
BEAVER ISLAND  CLEAR     69  67  95 SE5       30.04S
BELLAIRE       CLEAR     61  60  96 CALM      30.05S FOG
CADILLAC       PTCLDY    64  58  83 CALM      30.10R
CHARLEVOIX     CLEAR     67  67 100 SE6       30.07S
FRANKFORT      CLEAR     76  70  81 CALM      30.04R
GAYLORD        CLEAR     66  65  96 S3        30.10S FOG
GRAYLING       FOG       62  59  90 CALM      30.11R VSB 1/4
HARBOR SPRINGS CLEAR     64  62  95 E3        30.06R FOG
HOUGHTON LAKE  CLEAR     62  61  96 CALM      30.11R FOG
MANISTEE       CLEAR     63  62  97 E3        30.05R
OSCODA         CLEAR     68  68 100 S5        30.10R FOG
PELLSTON       FOG       59  59 100 CALM      30.06S VSB 1/4
ROGERS CITY    CLEAR     66  65  97 S5        30.08S
TRAVERSE CITY  CLEAR     68  64  87 CALM      30.04R
$$
MIZ007>008-015-221100-
EASTERN UPPER MICHIGAN

CITY           SKY/WX    TMP DP  RH WIND       PRES   REMARKS
KINROSS        PTCLDY    63  63 100 SE6       30.06S FOG
MACKINAC ISLAN CLEAR     67  67 100 S8        30.05S
NEWBERRY       PTCLDY    64  63  97 S7        30.03S FOG
S. S. MARIE    FOG       64  63  96 CALM      30.06R VSB 1/4
MUNISING         N/A     66  66 100 S8        29.99R
$$
MIZ004>006-011>014-085-221100-
CENTRAL UPPER MICHIGAN

CITY           SKY/WX    TMP DP  RH WIND       PRES   REMARKS
MANISTIQUE     CLEAR     66  60  81 SE7       30.02S HAZE
ESCANABA       FOG       60  60 100 CALM      30.01R VSB 1/2
MENOMINEE      FOG       64  63  96 CALM      30.01R VSB 1
SAWYER-GWINN   FOG       64  63  99 S12       30.01R VSB 1/2
$$
MIZ001>003-009>011-084-221100-
WESTERN UPPER MICHIGAN

CITY           SKY/WX    TMP DP  RH WIND       PRES   REMARKS
IRON MOUNTAIN  FOG       64  62  93 SE6       29.99S VSB 1
HOUGHTON       CLOUDY    65  61  87 S7        29.93S
COPPER HARBOR    N/A     64  62  93 SW10      29.91S
IRONWOOD       CLOUDY    70  66  87 SW8G17    29.93R
$$

ABBREVIATIONS USED IN REMARKS
   TC - TEMPERATURE IN CELSIUS
  WCI - WIND CHILL INDEX
   HX - HEAT INDEX
  VSB - VISIBILITY





USA.gov is the U.S. government's official web portal to all federal, state and local government web resources and services.